Погода в Киренске

Погода в Киренске : погода сейчас, прогноз погоды и архив. Всё, что Вы хотите узнать о погоде в Киренске!

Хотите узнать прогноз погоды в Киренске? Тогда Вам сюда: Погода в Киренске

Поиск расширенной информации на нашем сайте:

Другие новости

Новости СМИ2

Главная страница сайта

Новости сайта

03.07.2017

Напоминаем, что на нашем специализированном сайте Метеоцентр.Азия вы можете получить высокодетализированные автоматические прогнозы погоды по пунктам России, СНГ и мира в авиационном формате (включающие направление и скорость ветра, видимость, явления погоды, количество и форму облачности, нижнюю и верхнюю границу облачности).


Погода в Киренске - сегодня

Время (UTC), дата Ветер
(°,м/с) 
Видим.   Явления Облачность Т
(°С)
Тd
(°С)
f(%) Тe
(°С)
Pmin
(гПа)
dP
(гПа)
Po
(мм)
O2
(г/м3)
Тmin Tmax R s Состояние
почвы
18 14.08.18 тихо ()   н/о  местами туман поземный  10/8 600 м кучево-дожд., средняя, верхняя 
[Cb cap|Ac trans|Ci fib]
+16.8 +16.3 97 +29  1006.1  -0.7  732  274           
21 14.08.18 тихо ()   1000 м  дымка  10/3 600 м средняя, верхняя 
[Sc|Ac trans|Cs]
+16 +15.7 98 +27  1005.8  -0.4  732  275           
00 15.08.18 тихо ()   20000 м    10/6 600 м кучево-дожд., средняя, верхняя 
[Cb cap|Ac trans|Ci fib]
+17.7 +16.7 94 +30  1005.8  0.2  732  273  +15.7        сухая 
03 15.08.18 120 (ЮВ) 10 км  слаб. ливневой дождь  9/9 600 м кучево-дожд. 
[Cb cap]
+20 +16.9 82 +33  1006.1  0.5  732  271           
06 15.08.18 200 (Ю) 20000 м  {ливн. осадки}  9/9 600 м кучево-дожд. 
[Cb cap]
+23.5 +16.5 65 +36  1005.8  0.1  732  268           
09 15.08.18 250 (З) 20000 м    10/8 600 м кучево-дожд., верхняя 
[Cb cap|Ci fib]
+23.2 +11.9 49 +27  1007.5  1.5  734  270           
12 15.08.18 220 (ЮЗ) 20000 м    9/6 600 м кучево-дожд., верхняя 
[Cb cap|Ci fib]
+20 +10 53 +22  1009.5  1.6  735  274    +26.1  0.0     
15 15.08.18 170 (Ю) 2{10}  н/о    8/5 600 м кучево-дожд., верхняя 
[Cb cap|Ci fib]
+14.8 +7.1 60 +15  1010.9  0.8  735  280           
18 15.08.18 180 (Ю) 3{10}  н/о    8/4 600 м кучево-дожд., верхняя 
[Cb cap|Ci fib]
+14.6 +6.6 59 +15  1010.1  -0.7  735  280           
21 15.08.18 190 (Ю) 5{12}  20000 м    9/9 600 м кучево-дожд. 
[Cb cap]
+14.2 +6.3 59 +14  1009.4  -0.8  734  280           
00 16.08.18 180 (Ю) 6{11}  20000 м    9/9 600 м кучево-дожд. 
[Cb cap]
+13.9 +6.9 63 +13  1008.9  -0.5  734  280  +13.7        сухая 
06 16.08.18 180 (Ю) 20000 м  слаб. ливневой дождь  10/10 600 м кучево-дожд. 
[Cb cap]
+13.6 +10.5 82 +15  1007.9  -0.7  733  279           
09 16.08.18 180 (Ю) 20000 м  слаб. ливневой дождь  10/10 600 м кучево-дожд. 
[Cb cap]
-4.7 -5.7 93 -6  1010.1  733  301           
12 16.08.18 170 (Ю) 20000 м  в посл. час ливневой дождь  10/8 600 м кучево-дожд., средняя 
[Cb cap|Ac As]
+12.4 +11.6 95 +17  1007.5  -0.4  733  280    +15.2     
15 16.08.18 180 (Ю) н/о  слаб. ливневой дождь  10/10 600 м кучево-дожд. 
[Cb cap]
+12 +10.8 92 +15  1006.8  -0.8  732  281           
18 16.08.18 180 (Ю) н/о  слаб. ливневой дождь  10/10 600 м кучево-дожд. 
[Cb cap]
+11.2 +11 99 +14  1005.6  -1.2  731  281           
21 16.08.18 170 (Ю) 20000 м  {ливн. осадки}  10/10 200 м кучево-дожд. 
[Cb cap]
+11.7 +11.3 97 +16  1004.7  -0.9  731  280           
00 17.08.18 210 (ЮЗ) 4000 м  слаб. ливневой дождь  10/10 200 м кучево-дожд. 
[Cb cap]
+11.9 +11.7 99 +17  1004.6  -0.1  731  280  +11.1      влажная 
03 17.08.18 260 (З) 20000 м    10/10 300 м кучево-дожд. 
[Cb cap]
+13.6 +12.3 92 +20  1004.6  0.3  731  278           
06 17.08.18 тихо ()   20000 м  в посл. час ливневой дождь  10/10 600 м кучево-дожд. 
[Cb cap]
+14.2 +12.6 90 +20  1004.8  0.2  731  277           
09 17.08.18 260 (З) 20000 м    10/10 600 м кучево-дожд. 
[Cb cap]
+14 +12.2 89 +20  1005.3  0.5  731  278           
12 17.08.18 200 (Ю) 20000 м  слаб. ливневой дождь  10/10 600 м кучево-дожд. 
[Cb cap]
+13.1 +12.5 96 +19  1005.4  731  279    +16  0.8     
15 17.08.18 210 (ЮЗ) н/о  {ливн. осадки}  10/10 600 м кучево-дожд. 
[Cb cap]
+12 +11.6 97 +17  1004.4  -1  731  280           
18 17.08.18 200 (Ю) н/о  слаб. ливневой дождь  10/10 600 м кучево-дожд. 
[Cb cap]
+12.2 +12 99 +18  1003.5  -0.9  730  279           
21 17.08.18 170 (Ю) 20000 м  {ливн. осадки}  10/10 300 м кучево-дожд. 
[Cb cap]
+12.1 +12.1 100 +18  1003  -0.5  730  279           
Время (UTC), дата Ветер
(°,м/с) 
Видим.   Явления Облачность Т
(°С)
Тd
(°С)
f(%) Тe
(°С)
Pmin
(гПа)
dP
(гПа)
Po
(мм)
O2
(г/м3)
Тmin Tmax R s Состояние
почвы

Для получения пояснительной информации подведите курсор к названию столбца.

ПОГОДА в Киренске - архив

Всё, что Вы хотите узнать о погоде в Киренске - удобно и подробно!

Выберите нужную дату (начиная с 1 января 2015* года) и нажмите кнопку "Найти".
Будут отображены архивные сводки погоды по пункту Киренск, начиная с указанной даты.


Отображать данные в формате CSV (для использования в таблицах Excel)


Внимание! Наш архив погоды предназначен исключительно для личного некоммерческого использования в познавательных целях. Если Вам необходимы официальные справки о состоянии погоды (для производственных, юридических, коммерческих и т.п. целей), обращайтесь в органы Росгидромета.

*Примечание: данная дата относится к архиву по метеостанциям СССР (Россия, СНГ, Балтия).
Архив по метеостанциям Зарубежной Европы и Азии (кроме Китая) хранится 10 дней, по другим регионам земного шара (Китай, Африка, Америка, Австралия, Океания) - 1 день.

Киренск - район местоположения метеостанции


Название, широта, долгота, высота метеостанции:
Киренск 57.8°ш. 108.1°д. 259 м над ур. моря [Российская Федерация]

Дополнительная информация

В oтличие oт бoльшинства пoгoдных сайтoв мы публикуем пoдрoбную метеoинфoрмацию в детальнoм прoфессиoнальнoм фoрмате.

Характеристики температуры и влажнoсти вoздуха измеряются на высoте 2 м в тени вдали oт зданий и деревьев.
Скoрoсть ветра измеряется на высoте 10 м (на урoвне рoста челoвека скoрoсть ветра ниже в 1.5-2 раза). Если метеoстанция нахoдится в гoрoде или в лесу, тo скoрoсть ветра занижена на 2-4 м/с пo сравнению с oткрытым местoм. Скoрoсть ветра над акватoриями крупных рек и oзёр, а также на вершинах хoлмoв на 2-5 м/с выше, чем в oбычных услoвиях.
Атмoсфернoе давление в разных тoчках местнoсти мoжет значительнo oтличаться oт давления на метеoстанции, в зависимoсти oт услoвий рельефа (при пoдъёме на 10 м давление пoнижается примернo на 1 мм рт.ст.).